Home > Time Zones > World Clock > Weather > Peru > Cuzco > Past weeks

Flag for Peru Weather past 2 weeks in Cuzco, Cusco, Peru

Now
45 °F

Clear.


Feels Like: 45 °F
Forecast: 34 / 64 °F
Wind: No wind

Location: Cuzco Airport

Current Time: Jul 31, 2014 at 11:34:52 PM

Latest Report: Jul 31, 2014 at 11:00 PM


Visibility: N/A

Pressure: 30.54 "Hg

Humidity: 61%

Dew point: 32 °F

Location of CuzcoLocation

Historic Weather in Cuzco — Graph

°F

Cuzco temperature yesterday

Maximum temperature yesterday: 66 °F (at 1:00 PM)
Minimum temperature yesterday: 37 °F (at 2:00 AM)
Average temperature yesterday: 48 °F

Past Weeks' High & Low Weather Summary

 TemperatureHumidityPressure
High70 °F (Jul 31, 2:00 PM)93% (Jul 24, 2:00 AM)30.69 "Hg (Jul 24, 2:00 AM)
Low32 °F (Jul 29, 6:00 AM)13% (Jul 31, 4:00 PM)30.33 "Hg (Jul 23, 4:00 PM)
Average49 °F56%30.52 "Hg
* Reported Jul 16 10:00 PM — Jul 31 10:00 PM, Cuzco, Weather by CustomWeather, © 2014

Note: Actual official high and low records may vary slightly from our data, if they occured in-between our weather recording intervals... More about our weather records

Advertising

Cuzco weather history for previous 24 hours

 ConditionsComfort  
Time TempWeatherWind HumidityBarometerVisibility
10:00 PM
Jul 31
45 °FClear.No wind57%30.51 "HgN/A
9:00 PM46 °FPassing clouds.No wind53%30.51 "HgN/A
8:00 PM54 °FPassing clouds.No wind38%30.48 "HgN/A
7:00 PM57 °FPassing clouds.No wind31%30.45 "HgN/A
6:00 PM59 °FPassing clouds.9 mph29%30.39 "HgN/A
5:00 PM63 °FScattered clouds.12 mph25%30.36 "HgN/A
4:00 PM70 °FScattered clouds.3 mph13%30.36 "HgN/A
3:00 PM68 °FScattered clouds.9 mph14%30.39 "HgN/A
2:00 PM70 °FScattered clouds.7 mph15%30.42 "HgN/A
1:00 PM66 °FPassing clouds.3 mph19%30.48 "HgN/A
12:00 PM63 °FScattered clouds.5 mph30%30.51 "HgN/A
11:00 AM59 °FScattered clouds.5 mph39%30.57 "HgN/A
10:00 AM55 °FPassing clouds.3 mph44%30.60 "HgN/A
9:00 AM50 °FPassing clouds.2 mph58%30.63 "HgN/A
8:00 AM45 °FPassing clouds.No wind66%30.63 "HgN/A
7:00 AM36 °FPassing clouds.2 mph81%30.63 "HgN/A
6:00 AM34 °FClear.No wind81%30.60 "HgN/A
5:00 AM34 °FClear.No wind81%30.60 "HgN/A
4:00 AM36 °FClear.No wind81%30.57 "HgN/A
3:00 AM36 °FClear.No wind81%30.57 "HgN/A
2:00 AM36 °FClear.No wind87%30.57 "HgN/A
1:00 AM37 °FClear.No wind81%30.60 "HgN/A
12:00 AM41 °FQuite cool.N/A76%30.60 "HgN/A
11:00 PM
Jul 30
41 °FClear.No wind81%30.60 "HgN/A
Weather by CustomWeather, © 2014

See weather overviewHow to use our weather pages